Hourly Weather Kyzylsharua

Today, 22 October, Thursday

Time Temperature Precipitation Wind Pressure Humidity
00:00 +13°C° 0 mm 2 mps 706 mmHg 25%
01:00 +14°C° 0 mm 2 mps 705 mmHg 25%
02:00 +14°C° 0 mm 2 mps 705 mmHg 25%
03:00 +12°C° 0 mm 3 mps 706 mmHg 26%
04:00 +12°C° 0 mm 4 mps 706 mmHg 26%
05:00 +10°C° 0 mm 5 mps 706 mmHg 27%
06:00 +11°C° 0 mm 4 mps 706 mmHg 35%
07:00 +10°C° 0 mm 4 mps 707 mmHg 42%
08:00 +8°C° 0 mm 4 mps 708 mmHg 50%
09:00 +10°C° 0 mm 4 mps 708 mmHg 50%
10:00 +11°C° 0 mm 3 mps 708 mmHg 51%
11:00 +11°C° 0 mm 3 mps 708 mmHg 51%
12:00 +12°C° 0 mm 3 mps 708 mmHg 50%
13:00 +12°C° 0 mm 3 mps 708 mmHg 50%
14:00 +13°C° 0 mm 3 mps 708 mmHg 49%
15:00 +12°C° 0 mm 3 mps 707 mmHg 54%
16:00 +12°C° 0 mm 2 mps 707 mmHg 58%
17:00 +11°C° 0 mm 1 mps 707 mmHg 63%
18:00 +11°C° 0 mm 1 mps 707 mmHg 66%
19:00 +10°C° 0 mm 1 mps 707 mmHg 68%
20:00 +8°C° 0 mm 0 mps 707 mmHg 71%
21:00 +9°C° 0 mm 1 mps 707 mmHg 73%
22:00 +8°C° 0 mm 1 mps 706 mmHg 74%
23:00 +8°C° 0 mm 1 mps 706 mmHg 76%

Tomorrow, 23 October, Friday

Time Temperature Precipitation Wind Pressure Humidity
00:00 +7°C° 0 mm 2 mps 706 mmHg 70%
01:00 +7°C° 0 mm 2 mps 706 mmHg 65%
02:00 +7°C° 0 mm 3 mps 706 mmHg 59%
03:00 +6°C° 0 mm 2 mps 706 mmHg 59%
04:00 +6°C° 0 mm 2 mps 706 mmHg 58%
05:00 +6°C° 0 mm 2 mps 706 mmHg 58%
06:00 +6°C° 0.1 mm 2 mps 707 mmHg 64%
07:00 +5°C° 0.1 mm 3 mps 707 mmHg 70%
08:00 +5°C° 0.1 mm 3 mps 707 mmHg 76%
09:00 +5°C° 0.5 mm 3 mps 707 mmHg 77%
10:00 +5°C° 0.5 mm 3 mps 708 mmHg 78%
11:00 +5°C° 0.5 mm 3 mps 708 mmHg 79%
12:00 +7°C° 0.4 mm 3 mps 708 mmHg 79%
13:00 +7°C° 0.4 mm 3 mps 708 mmHg 79%
14:00 +7°C° 0.4 mm 3 mps 709 mmHg 79%
15:00 +7°C° 0.3 mm 3 mps 709 mmHg 77%
16:00 +7°C° 0.3 mm 3 mps 710 mmHg 76%
17:00 +7°C° 0.3 mm 3 mps 710 mmHg 74%
18:00 +5°C° 0.1 mm 3 mps 711 mmHg 73%
19:00 +5°C° 0.1 mm 3 mps 712 mmHg 72%
20:00 +4°C° 0.1 mm 3 mps 712 mmHg 71%
21:00 +5°C° 0 mm 2 mps 712 mmHg 73%
22:00 +4°C° 0 mm 2 mps 712 mmHg 75%
23:00 +3°C° 0 mm 2 mps 712 mmHg 77%

Day after tomorrow, 24 October, Saturday

Time Temperature Precipitation Wind Pressure Humidity
00:00 +4°C° 0 mm 1 mps 712 mmHg 78%
01:00 +3°C° 0 mm 1 mps 712 mmHg 79%
02:00 +3°C° 0 mm 1 mps 712 mmHg 79%
03:00 +3°C° 0 mm 1 mps 712 mmHg 79%
04:00 +3°C° 0 mm 1 mps 712 mmHg 78%
05:00 +2°C° 0 mm 1 mps 712 mmHg 77%
06:00 +3°C° 0 mm 1 mps 712 mmHg 73%
07:00 +3°C° 0 mm 2 mps 712 mmHg 69%
08:00 +4°C° 0 mm 2 mps 713 mmHg 65%
09:00 +6°C° 0 mm 2 mps 712 mmHg 60%
10:00 +7°C° 0 mm 3 mps 712 mmHg 56%
11:00 +9°C° 0 mm 3 mps 712 mmHg 51%
12:00 +9°C° 0 mm 3 mps 712 mmHg 50%
13:00 +10°C° 0 mm 3 mps 711 mmHg 49%
14:00 +10°C° 0 mm 3 mps 711 mmHg 47%
15:00 +10°C° 0 mm 2 mps 711 mmHg 49%
16:00 +9°C° 0 mm 2 mps 711 mmHg 52%
17:00 +8°C° 0 mm 2 mps 711 mmHg 54%
18:00 +8°C° 0 mm 2 mps 711 mmHg 55%
19:00 +7°C° 0 mm 2 mps 711 mmHg 57%
20:00 +6°C° 0 mm 2 mps 711 mmHg 58%
21:00 +6°C° 0 mm 2 mps 711 mmHg 58%
22:00 +6°C° 0 mm 2 mps 711 mmHg 58%
23:00 +6°C° 0 mm 2 mps 711 mmHg 58%

, 25 October, Sunday

Time Temperature Precipitation Wind Pressure Humidity
00:00 +5°C° 0 mm 2 mps 711 mmHg 58%
01:00 +6°C° 0 mm 1 mps 711 mmHg 58%
02:00 +6°C° 0 mm 1 mps 711 mmHg 58%
03:00 +5°C° 0 mm 1 mps 711 mmHg 57%
04:00 +5°C° 0 mm 1 mps 711 mmHg 57%
05:00 +4°C° 0 mm 2 mps 711 mmHg 56%
06:00 +6°C° 0 mm 1 mps 711 mmHg 53%
07:00 +7°C° 0 mm 1 mps 712 mmHg 49%
08:00 +9°C° 0 mm 1 mps 712 mmHg 46%
09:00 +10°C° 0 mm 1 mps 712 mmHg 42%
10:00 +12°C° 0 mm 1 mps 712 mmHg 39%
11:00 +14°C° 0 mm 1 mps 712 mmHg 36%
12:00 +15°C° 0 mm 1 mps 712 mmHg 34%
13:00 +15°C° 0 mm 1 mps 712 mmHg 32%
14:00 +16°C° 0 mm 1 mps 712 mmHg 30%
15:00 +15°C° 0 mm 1 mps 712 mmHg 32%
16:00 +13°C° 0 mm 1 mps 712 mmHg 34%
17:00 +12°C° 0 mm 1 mps 712 mmHg 36%
18:00 +11°C° 0 mm 1 mps 712 mmHg 38%
19:00 +10°C° 0 mm 1 mps 712 mmHg 41%
20:00 +9°C° 0 mm 1 mps 712 mmHg 43%
21:00 +9°C° 0 mm 1 mps 712 mmHg 44%
22:00 +8°C° 0 mm 2 mps 712 mmHg 44%
23:00 +7°C° 0 mm 2 mps 712 mmHg 45%

25 October, Sunday

Time Temperature Precipitation Wind Pressure Humidity
00:00 +5°C° 0 mm 2 mps 711 mmHg 58%
01:00 +6°C° 0 mm 1 mps 711 mmHg 58%
02:00 +6°C° 0 mm 1 mps 711 mmHg 58%
03:00 +5°C° 0 mm 1 mps 711 mmHg 57%
04:00 +5°C° 0 mm 1 mps 711 mmHg 57%
05:00 +4°C° 0 mm 2 mps 711 mmHg 56%
06:00 +6°C° 0 mm 1 mps 711 mmHg 53%
07:00 +7°C° 0 mm 1 mps 712 mmHg 49%
08:00 +9°C° 0 mm 1 mps 712 mmHg 46%
09:00 +10°C° 0 mm 1 mps 712 mmHg 42%
10:00 +12°C° 0 mm 1 mps 712 mmHg 39%
11:00 +14°C° 0 mm 1 mps 712 mmHg 36%
12:00 +15°C° 0 mm 1 mps 712 mmHg 34%
13:00 +15°C° 0 mm 1 mps 712 mmHg 32%
14:00 +16°C° 0 mm 1 mps 712 mmHg 30%
15:00 +15°C° 0 mm 1 mps 712 mmHg 32%
16:00 +13°C° 0 mm 1 mps 712 mmHg 34%
17:00 +12°C° 0 mm 1 mps 712 mmHg 36%
18:00 +11°C° 0 mm 1 mps 712 mmHg 38%
19:00 +10°C° 0 mm 1 mps 712 mmHg 41%
20:00 +9°C° 0 mm 1 mps 712 mmHg 43%
21:00 +9°C° 0 mm 1 mps 712 mmHg 44%
22:00 +8°C° 0 mm 2 mps 712 mmHg 44%
23:00 +7°C° 0 mm 2 mps 712 mmHg 45%

26 October, Monday

Time Temperature Precipitation Wind Pressure Humidity
00:00 +7°C° 0 mm 2 mps 712 mmHg 45%
01:00 +7°C° 0 mm 2 mps 711 mmHg 44%
02:00 +7°C° 0 mm 2 mps 711 mmHg 44%
03:00 +7°C° 0 mm 2 mps 711 mmHg 44%
04:00 +7°C° 0 mm 3 mps 711 mmHg 45%
05:00 +7°C° 0 mm 3 mps 711 mmHg 45%
06:00 +8°C° 0 mm 3 mps 711 mmHg 44%
07:00 +8°C° 0 mm 3 mps 710 mmHg 43%
08:00 +9°C° 0 mm 3 mps 710 mmHg 41%
09:00 +11°C° 0 mm 3 mps 710 mmHg 38%
10:00 +13°C° 0 mm 3 mps 710 mmHg 34%
11:00 +15°C° 0 mm 4 mps 709 mmHg 30%
12:00 +17°C° 0 mm 4 mps 709 mmHg 29%
13:00 +18°C° 0 mm 4 mps 708 mmHg 27%
14:00 +19°C° 0 mm 4 mps 708 mmHg 25%
15:00 +18°C° 0 mm 3 mps 708 mmHg 27%
16:00 +16°C° 0 mm 3 mps 707 mmHg 29%
17:00 +15°C° 0 mm 2 mps 707 mmHg 30%
18:00 +14°C° 0 mm 2 mps 706 mmHg 31%
19:00 +13°C° 0 mm 2 mps 706 mmHg 32%
20:00 +12°C° 0 mm 2 mps 706 mmHg 33%
21:00 +12°C° 0 mm 2 mps 705 mmHg 33%
22:00 +12°C° 0 mm 2 mps 705 mmHg 33%
23:00 +10°C° 0 mm 3 mps 704 mmHg 33%

27 October, Tuesday

Time Temperature Precipitation Wind Pressure Humidity
00:00 +10°C° 0 mm 2 mps 704 mmHg 32%
01:00 +10°C° 0 mm 2 mps 703 mmHg 32%
02:00 +10°C° 0 mm 2 mps 703 mmHg 32%
03:00 +9°C° 0 mm 2 mps 703 mmHg 31%
04:00 +9°C° 0 mm 2 mps 702 mmHg 31%
05:00 +9°C° 0 mm 2 mps 702 mmHg 30%
06:00 +10°C° 0 mm 2 mps 702 mmHg 28%
07:00 +12°C° 0 mm 2 mps 702 mmHg 26%
08:00 +13°C° 0 mm 1 mps 702 mmHg 24%
09:00 +15°C° 0 mm 1 mps 702 mmHg 21%
10:00 +19°C° 0 mm 1 mps 702 mmHg 18%
11:00 +19°C° 0 mm 0 mps 702 mmHg 15%
12:00 +22°C° 0 mm 1 mps 702 mmHg 14%
13:00 +23°C° 0 mm 1 mps 702 mmHg 14%
14:00 +24°C° 0 mm 1 mps 702 mmHg 13%
15:00 +22°C° 0 mm 1 mps 702 mmHg 15%
16:00 +20°C° 0 mm 1 mps 702 mmHg 17%
17:00 +18°C° 0 mm 1 mps 702 mmHg 19%
18:00 +16°C° 0 mm 2 mps 702 mmHg 20%
19:00 +15°C° 0 mm 2 mps 702 mmHg 21%
20:00 +15°C° 0 mm 2 mps 702 mmHg 22%
21:00 +15°C° 0 mm 2 mps 702 mmHg 22%
22:00 +14°C° 0 mm 1 mps 702 mmHg 23%
23:00 +14°C° 0 mm 1 mps 703 mmHg 23%
Show more

We Need Your Consent

Meteoprog and our Service Providers may store and access personal data such as cookies, device identifiers or other similar technologies on your device and process such data to personalise content and ads, as well as provide social media features and to analyse the traffic.

  • Store and/or access information on your device

    Cookies, device identifiers or other information can be stored or accessed on your device for the purposes indicated above.

  • Personalised ads and content, ad and content measurement, audience insights, and products development

    Ads and content can be personalised based on a profile. More data can be added to better personalise ads and content. Ad and content performance can be measured. Insights about the audience who saw the ads and content can be derived. Such data can be used to develop or improve user’s experience, systems and software.

By clicking ‘I Agree’ you will allow the use of indicated cookies, device identifiers, web beacons or other similar technologies. Your settings can be changed in the browser on your device.

For certain purposes, legitimate interests may be relied on, rather than consent. You can read more about this in our Privacy and Cookie Policy.